KORGOLDH4 Weather Reports


time (UTC)temp
F
wind
direction
speed
knots
gust
knots
rain 1hr
in
rain 24hr
in
rain mn
in
humidity
%
barometer
mb
20260509081012 54 0.0 0.0 0.00 0.00 0.00 1 1017.8
20260509080513 54 0.0 0.0 0.00 0.00 0.00 1 1017.8
20260509080012 54 0.0 0.0 0.00 0.00 0.00 1 1017.8
20260509075512 54 0.0 0.0 0.00 0.00 0.00 1 1017.8
20260509075013 55 0.0 0.0 0.00 0.00 0.00 1 1017.7
20260509074513 55 0.0 0.0 0.00 0.00 0.00 1 1017.6
20260509074013 55 0.0 0.0 0.00 0.00 0.00 2 1017.7
20260509073513 55 0.0 0.0 0.00 0.00 0.00 1 1017.7
20260509073013 55 0.0 0.0 0.00 0.00 0.00 3 1017.6
20260509072513 55 0.0 0.0 0.00 0.00 0.00 1 1017.6
20260509072012 56 0.0 0.0 0.00 0.00 0.00 1 1017.7
20260509071013 56 0.0 0.0 0.00 0.00 0.00 5 1017.6
20260509070512 56 0.0 0.0 0.00 0.00 0.00 5 1017.6
20260509070013 56 0.0 0.0 0.00 0.00 0.00 3 1017.6
20260509065513 56 0.0 0.0 0.00 0.00 0.00 12 1017.6
20260509065012 56 0.0 0.0 0.00 0.00 0.00 16 1017.6
20260509064512 57 0.0 0.0 0.00 0.00 0.00 14 1017.6
20260509063513 57 0.0 0.0 0.00 0.00 0.00 23 1017.6
20260509063012 57 0.0 0.0 0.00 0.00 0.00 26 1017.5
20260509062512 57 0.0 0.0 0.00 0.00 0.00 28 1017.6
20260509062012 57 0.0 0.0 0.00 0.00 0.00 28 1017.6
20260509061013 57 0.0 0.0 0.00 0.00 0.00 30 1017.5
20260509060012 58 0.0 0.0 0.00 0.00 0.00 26 1017.6
20260509055513 58 0.0 0.0 0.00 0.00 0.00 30 1017.6
20260509055013 58 0.0 0.0 0.00 0.00 0.00 32 1017.5
20260509054013 59 0.0 0.0 0.00 0.00 0.00 31 1017.5
20260509053513 59 0.0 0.0 0.00 0.00 0.00 34 1017.4
20260509053013 59 0.0 0.0 0.00 0.00 0.00 36 1017.4
20260509052512 59 0.0 0.0 0.00 0.00 0.00 34 1017.4
20260509052012 60 0.0 0.0 0.00 0.00 0.00 35 1017.3
20260509050012 61 0.0 0.0 0.00 0.00 0.00 37 1017.2
20260509045512 61 0.0 0.0 0.00 0.00 0.00 39 1017.1
20260509044512 63 0.0 0.0 0.00 0.00 0.00 47 1016.7
20260509043512 64 0.0 0.0 0.00 0.00 0.00 50 1016.5
20260509043013 65 0.0 0.0 0.00 0.00 0.00 51 1016.5
20260509041512 66 0.0 0.0 0.00 0.00 0.00 52 1016.3
20260509041013 67 0.0 0.0 0.00 0.00 0.00 53 1016.2
20260509040013 68 0.0 0.0 0.00 0.00 0.00 52 1016.0
20260509035512 68 0.0 0.0 0.00 0.00 0.00 52 1015.9
20260509034512 69 0.0 0.0 0.00 0.00 0.00 51 1015.9
20260509034012 69 0.0 0.0 0.00 0.00 0.00 50 1015.8
20260509033512 70 0.0 0.0 0.00 0.00 0.00 50 1015.7
20260509033012 71 0.0 0.0 0.00 0.00 0.00 49 1015.6
20260509032512 71 0.0 0.0 0.00 0.00 0.00 47 1015.6
20260509032012 71 0.0 0.0 0.00 0.00 0.00 47 1015.4
20260509031512 72 0.0 0.0 0.00 0.00 0.00 47 1015.3
20260509031013 72 0.0 0.0 0.00 0.00 0.00 47 1015.2
20260509030512 72 0.0 0.0 0.00 0.00 0.00 46 1015.1
20260509030012 73 0.0 0.0 0.00 0.00 0.00 46 1015.0
20260509025512 73 0.0 0.0 0.00 0.00 0.00 46 1014.9
20260509025012 73 0.0 0.0 0.00 0.00 0.00 46 1014.9
20260509024512 74 0.0 0.0 0.00 0.00 0.00 46 1014.9
20260509024013 74 0.0 0.0 0.00 0.00 0.00 45 1014.7
20260509023512 74 0.0 0.0 0.00 0.00 0.00 45 1014.7
20260509023012 74 0.0 0.0 0.00 0.00 0.00 45 1014.6
20260509022512 75 0.0 0.0 0.00 0.00 0.00 44 1014.5
20260509022012 75 0.0 0.0 0.00 0.00 0.00 44 1014.4
20260509021512 75 0.0 0.0 0.00 0.00 0.00 45 1014.4
20260509020512 76 0.0 0.0 0.00 0.00 0.00 44 1014.2
20260509020011 77 0.0 0.0 0.00 0.00 0.00 44 1014.2
20260509015512 77 0.0 0.0 0.00 0.00 0.00 41 1014.2
20260509015012 78 0.0 0.0 0.00 0.00 0.00 44 1014.1
20260509014511 78 0.0 0.0 0.00 0.00 0.00 42 1015.0
20260509014012 78 0.0 0.0 0.00 0.00 0.00 41 1014.9
20260509013512 79 0.0 0.0 0.00 0.00 0.00 40 1014.9
20260509013012 79 0.0 0.0 0.00 0.00 0.00 39 1014.9
20260509012512 80 0.0 0.0 0.00 0.00 0.00 39 1013.9
20260509012012 81 0.0 0.0 0.00 0.00 0.00 39 1014.0
20260509011512 82 0.0 0.0 0.00 0.00 0.00 36 1013.9
20260509011013 82 0.0 0.0 0.00 0.00 0.00 36 1013.9
20260509010512 83 0.0 0.0 0.00 0.00 0.00 36 1013.8
20260509010012 83 0.0 0.0 0.00 0.00 0.00 34 1013.9
20260509005512 84 0.0 0.0 0.00 0.00 0.00 30 1013.9
20260509005012 84 0.0 0.0 0.00 0.00 0.00 27 1014.0
20260509004511 84 0.0 0.0 0.00 0.00 0.00 27 1013.9
20260509003512 83 0.0 0.0 0.00 0.00 0.00 30 1013.9
20260509003013 83 0.0 0.0 0.00 0.00 0.00 29 1014.0
20260509002512 83 0.0 0.0 0.00 0.00 0.00 29 1014.0
20260509002012 83 0.0 0.0 0.00 0.00 0.00 28 1014.0
20260509001512 83 0.0 0.0 0.00 0.00 0.00 28 1014.0
20260509001012 83 0.0 0.0 0.00 0.00 0.00 28 1014.0
20260509000512 83 0.0 0.0 0.00 0.00 0.00 28 1014.0
20260509000012 83 0.0 0.0 0.00 0.00 0.00 28 1014.1
20260508235512 83 0.0 0.0 0.00 0.00 0.00 28 1014.1
20260508235012 83 0.0 0.0 0.00 0.00 0.00 29 1014.2
20260508234511 82 0.0 0.0 0.00 0.00 0.00 30 1014.2
20260508234012 82 0.0 0.0 0.00 0.00 0.00 30 1014.3
20260508233511 82 0.0 0.0 0.00 0.00 0.00 27 1014.3
20260508233012 82 0.0 0.0 0.00 0.00 0.00 30 1014.4
20260508232511 82 0.0 0.0 0.00 0.00 0.00 29 1014.4
20260508232011 82 0.0 0.0 0.00 0.00 0.00 29 1014.4
20260508231512 82 0.0 0.0 0.00 0.00 0.00 29 1014.5
20260508230511 82 0.0 0.0 0.00 0.00 0.00 28 1014.6
20260508230012 82 0.0 0.0 0.00 0.00 0.00 31 1014.6
20260508225512 82 0.0 0.0 0.00 0.00 0.00 29 1014.7
20260508225012 81 0.0 0.0 0.00 0.00 0.00 30 1014.8
20260508224512 81 0.0 0.0 0.00 0.00 0.00 31 1014.8
20260508224012 81 0.0 0.0 0.00 0.00 0.00 29 1014.8
20260508222512 81 0.0 0.0 0.00 0.00 0.00 26 1015.0
20260508222011 81 0.0 0.0 0.00 0.00 0.00 31 1014.9
20260508221511 81 0.0 0.0 0.00 0.00 0.00 28 1015.0
20260508220511 81 0.0 0.0 0.00 0.00 0.00 30 1015.1
20260508215512 81 0.0 0.0 0.00 0.00 0.00 31 1015.1
20260508215012 81 0.0 0.0 0.00 0.00 0.00 28 1015.2
20260508214511 81 0.0 0.0 0.00 0.00 0.00 33 1015.2
20260508214012 80 0.0 0.0 0.00 0.00 0.00 27 1015.3
20260508213512 80 0.0 0.0 0.00 0.00 0.00 31 1015.3
20260508213011 81 0.0 0.0 0.00 0.00 0.00 28 1015.4
20260508212511 80 0.0 0.0 0.00 0.00 0.00 27 1015.5
20260508212011 81 0.0 0.0 0.00 0.00 0.00 27 1015.5
20260508211511 80 0.0 0.0 0.00 0.00 0.00 29 1015.5
20260508211012 80 0.0 0.0 0.00 0.00 0.00 32 1015.5
20260508210512 80 0.0 0.0 0.00 0.00 0.00 33 1015.5
20260508210012 79 0.0 0.0 0.00 0.00 0.00 31 1015.5
20260508205512 79 0.0 0.0 0.00 0.00 0.00 32 1015.6
20260508205012 79 0.0 0.0 0.00 0.00 0.00 31 1015.6
20260508204512 78 0.0 0.0 0.00 0.00 0.00 31 1015.7
20260508204011 78 0.0 0.0 0.00 0.00 0.00 30 1015.8
20260508203512 78 0.0 0.0 0.00 0.00 0.00 32 1015.9
20260508203011 78 0.0 0.0 0.00 0.00 0.00 33 1015.8
20260508202512 78 0.0 0.0 0.00 0.00 0.00 29 1015.8
20260508202011 77 0.0 0.0 0.00 0.00 0.00 29 1015.9
20260508201511 77 0.0 0.0 0.00 0.00 0.00 31 1015.9
20260508201011 77 0.0 0.0 0.00 0.00 0.00 32 1015.9
20260508200512 77 0.0 0.0 0.00 0.00 0.00 34 1016.0
20260508200011 77 0.0 0.0 0.00 0.00 0.00 29 1016.0
20260508195511 77 0.0 0.0 0.00 0.00 0.00 32 1016.1
20260508195011 76 0.0 0.0 0.00 0.00 0.00 32 1016.2
20260508194511 76 0.0 0.0 0.00 0.00 0.00 36 1016.2
20260508194011 75 0.0 0.0 0.00 0.00 0.00 34 1016.3
20260508193511 75 0.0 0.0 0.00 0.00 0.00 34 1016.4
20260508193011 74 0.0 0.0 0.00 0.00 0.00 36 1016.4
20260508192511 74 0.0 0.0 0.00 0.00 0.00 37 1016.5
20260508192012 73 0.0 0.0 0.00 0.00 0.00 35 1016.5
20260508191512 73 0.0 0.0 0.00 0.00 0.00 35 1016.6
20260508191012 73 0.0 0.0 0.00 0.00 0.00 36 1016.6
20260508190012 72 0.0 0.0 0.00 0.00 0.00 38 1016.8
20260508185511 72 0.0 0.0 0.00 0.00 0.00 39 1016.8
20260508185012 72 0.0 0.0 0.00 0.00 0.00 43 1016.7
20260508184511 71 0.0 0.0 0.00 0.00 0.00 44 1016.8
20260508184011 71 0.0 0.0 0.00 0.00 0.00 41 1016.8
20260508183512 70 0.0 0.0 0.00 0.00 0.00 47 1016.9
20260508183011 70 0.0 0.0 0.00 0.00 0.00 47 1016.9
20260508182511 69 0.0 0.0 0.00 0.00 0.00 47 1017.0
20260508181511 68 0.0 0.0 0.00 0.00 0.00 46 1017.2
20260508181011 68 0.0 0.0 0.00 0.00 0.00 48 1017.2
20260508180511 67 0.0 0.0 0.00 0.00 0.00 46 1017.2
20260508175511 66 0.0 0.0 0.00 0.00 0.00 48 1017.3
20260508174511 66 0.0 0.0 0.00 0.00 0.00 52 1017.4
20260508174011 65 0.0 0.0 0.00 0.00 0.00 52 1017.5
20260508173012 64 0.0 0.0 0.00 0.00 0.00 46 1017.5
20260508172511 63 0.0 0.0 0.00 0.00 0.00 45 1017.6
20260508172013 63 0.0 0.0 0.00 0.00 0.00 42 1017.6
20260508171511 62 0.0 0.0 0.00 0.00 0.00 35 1017.5
20260508171011 61 0.0 0.0 0.00 0.00 0.00 29 1017.6
20260508170511 61 0.0 0.0 0.00 0.00 0.00 22 1017.6
20260508170011 61 0.0 0.0 0.00 0.00 0.00 17 1017.6
20260508165511 60 0.0 0.0 0.00 0.00 0.00 14 1017.6
20260508165011 60 0.0 0.0 0.00 0.00 0.00 9 1017.6
20260508164511 59 0.0 0.0 0.00 0.00 0.00 4 1017.5
20260508164011 59 0.0 0.0 0.00 0.00 0.00 1 1017.5
20260508163511 58 0.0 0.0 0.00 0.00 0.00 1 1017.5
20260508163011 57 0.0 0.0 0.00 0.00 0.00 1 1017.6
20260508162511 56 0.0 0.0 0.00 0.00 0.00 1 1017.7
20260508162012 55 0.0 0.0 0.00 0.00 0.00 1 1017.8
20260508161511 54 0.0 0.0 0.00 0.00 0.00 1 1017.7
20260508160511 53 0.0 0.0 0.00 0.00 0.00 1 1017.9
20260508160011 52 0.0 0.0 0.00 0.00 0.00 1 1017.9
20260508155511 51 0.0 0.0 0.00 0.00 0.00 1 1017.9
20260508155010 51 0.0 0.0 0.00 0.00 0.00 1 1018.0
20260508154012 50 0.0 0.0 0.00 0.00 0.00 1 1017.9
20260508153512 50 0.0 0.0 0.00 0.00 0.00 1 1018.0
20260508153012 49 0.0 0.0 0.00 0.00 0.00 1 1018.0
20260508152512 49 0.0 0.0 0.00 0.00 0.00 1 1018.1
20260508151511 49 0.0 0.0 0.00 0.00 0.00 1 1018.1
20260508150511 48 0.0 0.0 0.00 0.00 0.00 1 1018.1
20260508150011 48 0.0 0.0 0.00 0.00 0.00 1 1018.1
20260508145510 48 0.0 0.0 0.00 0.00 0.00 1 1018.0
20260508145011 47 0.0 0.0 0.00 0.00 0.00 1 1018.0
20260508144012 47 0.0 0.0 0.00 0.00 0.00 1 1017.8
20260508143511 46 0.0 0.0 0.00 0.00 0.00 1 1017.8
20260508143011 46 0.0 0.0 0.00 0.00 0.00 1 1017.7
20260508142511 46 0.0 0.0 0.00 0.00 0.00 1 1017.7
20260508141010 45 0.0 0.0 0.00 0.00 0.00 1 1017.5
20260508140511 44 0.0 0.0 0.00 0.00 0.00 1 1017.5
20260508140011 44 0.0 0.0 0.00 0.00 0.00 1 1017.5
20260508135011 44 0.0 0.0 0.00 0.00 0.00 1 1017.3
20260508134511 44 0.0 0.0 0.00 0.00 0.00 1 1017.2
20260508134011 44 0.0 0.0 0.00 0.00 0.00 1 1017.1
20260508133511 44 0.0 0.0 0.00 0.00 0.00 1 1017.0
20260508133011 44 0.0 0.0 0.00 0.00 0.00 1 1017.1
20260508132510 44 0.0 0.0 0.00 0.00 0.00 1 1016.9
20260508132010 45 0.0 0.0 0.00 0.00 0.00 1 1017.0
20260508131011 45 0.0 0.0 0.00 0.00 0.00 1 1016.9
20260508130511 45 0.0 0.0 0.00 0.00 0.00 1 1016.8
20260508130011 45 0.0 0.0 0.00 0.00 0.00 1 1016.7
20260508125011 45 0.0 0.0 0.00 0.00 0.00 1 1016.7
20260508124011 45 0.0 0.0 0.00 0.00 0.00 1 1016.6
20260508123511 45 0.0 0.0 0.00 0.00 0.00 1 1016.6
20260508122011 45 0.0 0.0 0.00 0.00 0.00 1 1016.5
20260508121510 45 0.0 0.0 0.00 0.00 0.00 1 1016.6
20260508120511 45 0.0 0.0 0.00 0.00 0.00 1 1016.4
20260508115511 45 0.0 0.0 0.00 0.00 0.00 1 1016.4
20260508115010 45 0.0 0.0 0.00 0.00 0.00 1 1016.3
20260508114511 46 0.0 0.0 0.00 0.00 0.00 1 1016.2
20260508114010 46 0.0 0.0 0.00 0.00 0.00 1 1016.2
20260508113511 46 0.0 0.0 0.00 0.00 0.00 1 1016.2
20260508112511 46 0.0 0.0 0.00 0.00 0.00 1 1015.9
20260508112011 46 0.0 0.0 0.00 0.00 0.00 1 1015.9
20260508111511 46 0.0 0.0 0.00 0.00 0.00 1 1015.9
20260508110511 47 0.0 0.0 0.00 0.00 0.00 1 1015.9
20260508110011 47 0.0 0.0 0.00 0.00 0.00 1 1015.9
20260508105511 47 0.0 0.0 0.00 0.00 0.00 1 1015.7
20260508104511 48 0.0 0.0 0.00 0.00 0.00 1 1015.6
20260508104012 48 0.0 0.0 0.00 0.00 0.00 1 1015.6
20260508103010 48 0.0 0.0 0.00 0.00 0.00 1 1015.6
20260508102510 48 0.0 0.0 0.00 0.00 0.00 1 1015.6
20260508102010 48 0.0 0.0 0.00 0.00 0.00 1 1015.5
20260508101512 49 0.0 0.0 0.00 0.00 0.00 1 1015.6
20260508100510 49 0.0 0.0 0.00 0.00 0.00 1 1015.5
20260508100011 49 0.0 0.0 0.00 0.00 0.00 1 1015.5
20260508095511 49 0.0 0.0 0.00 0.00 0.00 1 1015.5
20260508095010 50 0.0 0.0 0.00 0.00 0.00 1 1015.4
20260508094511 50 0.0 0.0 0.00 0.00 0.00 1 1015.4
20260508094011 50 0.0 0.0 0.00 0.00 0.00 1 1015.3
20260508093011 50 0.0 0.0 0.00 0.00 0.00 1 1015.4
20260508092511 50 0.0 0.0 0.00 0.00 0.00 1 1015.3
20260508091510 51 0.0 0.0 0.00 0.00 0.00 1 1015.1
20260508091011 51 0.0 0.0 0.00 0.00 0.00 1 1015.0